• Processing (Info)

  • MPEC 2023-M114 : 2023 MM3

    The following Minor Planet Electronic Circular may be linked-to from your own Web pages, but must not otherwise be redistributed electronically.

    A form allowing access to any MPEC is at the bottom of this page.


    Read MPEC 2023-M113 Read MPEC 2023-M115


    M.P.E.C. 2023-M114                                Issued 2023 June 23, 13:15 UT
    
         The Minor Planet Electronic Circulars contain information on unusual
             minor planets, routine data on comets and natural satellites,
             and occasional editorial announcements.  They are published
        on behalf of Division F of the International Astronomical Union by the
              Minor Planet Center, Smithsonian Astrophysical Observatory,
                              Cambridge, MA 02138, U.S.A.
    			  
                 Prepared using the Tamkin Foundation Computer Network
    
                                  MPC@CFA.HARVARD.EDU
                URL https://www.minorplanetcenter.net/    ISSN 1523-6714
    
                                    2023 MM3                                 
    
    
    Observations:
         K23M03M  C2023 06 10.28083715 05 37.625+21 07 29.03         22.31GVEM114F52
         K23M03M  C2023 06 10.29172315 05 37.895+21 07 41.95         22.42GVEM114F52
         K23M03M  C2023 06 10.30268115 05 38.133+21 07 54.54         22.09GVEM114F52
         K23M03M  C2023 06 17.40432315 13 43.502+23 12 26.38         22.30GVEM114F52
         K23M03M  C2023 06 17.41655615 13 44.339+23 12 37.75         22.02GVEM114F52
         K23M03M  C2023 06 17.42877715 13 45.202+23 12 48.93         22.42GVEM114F52
         K23M03M  C2023 06 17.44104015 13 46.090+23 13 00.18         22.13GVEM114F52
         K23M03M* C2023 06 22.40926715 23 28.092+24 32 34.46         22.20wXEM114F51
         K23M03M  C2023 06 22.42212515 23 29.590+24 32 45.10         22.47wXEM114F51
         K23M03M  C2023 06 22.43501715 23 31.071+24 32 55.86         22.46wXEM114F51
         K23M03M  C2023 06 22.51394815 23 40.919+24 33 57.27         22.37GVEM114F51
         K23M03M  C2023 06 22.51459315 23 41.032+24 33 57.28         21.77GVEM114F51
         K23M03M 3C2023 06 23.28115215 25 41.056+24 45 59.53         21.95GVEM114T14
         K23M03M 3C2023 06 23.28236215 25 41.203+24 46 00.70         22.08GVEM114T14
         K23M03M 3C2023 06 23.28357515 25 41.351+24 46 01.86         21.84GVEM114T14
    
    Observer details:
    F51 Pan-STARRS 1, Haleakala.  Observers J. Bulger, T. Lowe, P. Minguez, A.
        Schultz, I. Smith, K. Chambers.  Measurers K. Chambers, T. de Boer, J.
        Bulger, J. Fairlamb, H. Gao, M. Huber, C.-C. Lin, T. Lowe, E. Magnier, P.
        Minguez, Y. Ramanjooloo, A. Schultz, I. Smith, R. Wainscoat, R. Weryk, S.
        Chastel.  1.8-m Ritchey-Chretien + CCD.
    F52 Pan-STARRS 2, Haleakala.  Observers J. Bulger, K. Chambers, T. Dukes, T.
        Lowe, P. Minguez, A. Schultz, I. Smith.  Measurers S. Chastel, J.
        Fairlamb, M. Huber, Y. Ramanjooloo, R. Wainscoat, R. Weryk.  1.8-m
        Ritchey-Chretien + CCD.
    T14 Canada-France-Hawaii Telescope, Maunakea.  Observers R. Wainscoat, L.
        Wells, T. Burdullis.  Measurers R. Weryk, R. Wainscoat.  3.6-m Canada-
        France-Hawaii Telescope + CCD.
    
    Orbital elements:
    2023 MM3                                                 Earth MOID = 0.0483 AU
    Epoch 2023 Feb. 25.0 TT = JDT 2460000.5                 Veres                   
    M 306.60073              (2000.0)            P               Q                  
    n   0.38390358     Peri.  153.25524     +0.34436231     +0.93659291             
    a   1.8749424      Node   136.80304     -0.87744135     +0.34565067             
    e   0.4395276      Incl.    5.43814     -0.33393303     +0.05761365             
    P   2.57           H   24.72          G   0.15           U   8                  
    Residuals in seconds of arc
    230610 F52  0.2+  0.3-    230617 F52  0.0   0.0     230622 F51  0.2-  0.1+
    230610 F52  0.1+  0.1+    230617 F52  0.1+  0.1+    230622 F51  0.2+  0.4-
    230610 F52  0.3-  0.2+    230622 F51  0.0   0.0     230623 T14  0.0   0.0
    230617 F52  0.0   0.1-    230622 F51  0.1+  0.0     230623 T14  0.0   0.0
    230617 F52  0.1-  0.0     230622 F51  0.3-  0.2+    230623 T14  0.0   0.0
    
    Ephemeris:
    2023 MM3                 a,e,i = 1.87, 0.44, 5                   q = 1.0509
    Date    TT    R. A. (2000) Decl.     Delta      r    Elong.  Phase     V
    2023 05 24    15 01 23.5 +15 08 55   0.2148  1.1879   141.4    32.1    23.1
    ...
    2023 06 08    15 04 01.3 +20 24 41   0.1634  1.1231   128.1    45.3    22.8
    ...
    2023 06 16    15 11 41.5 +22 48 50   0.1382  1.0956   122.2    51.7    22.5
    ...
    2023 06 22    15 22 33.0 +24 26 13   0.1197  1.0789   118.7    55.7    22.3
    2023 06 23    15 24 57.0 +24 41 36   0.1166  1.0765   118.3    56.2    22.3
    2023 06 24    15 27 33.0 +24 56 45   0.1135  1.0742   117.9    56.8    22.2
    ...
    2023 06 30    15 48 22.3 +26 21 37   0.09544 1.0624   116.4    59.0    21.9
    ...
    2023 07 08    16 37 14.5 +27 37 34   0.07269 1.0530   118.2    58.3    21.2
    ...
    2023 07 23    20 01 29.6 +16 52 49   0.04896 1.0555   142.9    35.5    19.7
    
    M. P. C. Staff               (C) Copyright 2023 MPC           M.P.E.C. 2023-M114
    


    Read MPEC 2023-M113 Read MPEC 2023-M115


    MPEC number:

    Enter an MPEC number in one of the following forms:

    • 1997-B01 (the full form)
    • J97B01 (the packed version of the full form)
    • B01 (the abbreviated form)